星链-32875 (STARLINK-32875)

导读

STARLINK-32875是美国SpaceX公司星链(Starlink)项目的V2 Mini卫星,于北京时间2025年2月11日,由猎鹰9号火箭从范登堡太空军基地发射升空,属于星链11-10任务批次,同批次共23颗卫星进入近地轨道。作为星链星座的组成部分,它将为全球偏远地区提供低延迟高速宽带互联网服务,截至此次发射,星链系统累计发射卫星已近7900颗。

基本信息
目录编号:
62951
目录名称:
STARLINK-32875
国际标识:
2025-029D
轨道中心:
EARTH
卫星名称:
星链-32875
卫星全名:
星链-32875 (STARLINK-32875)
卫星状态:
在轨 (已飞行488 天)
发射日期:
2025-02-11 UTC
国别 :
美国 (US)
星等 :
--
轨道信息
数据来源 国际轨道数据
星历时间: 2026-06-13T23:15:23+0800
16小时前
查看轨道信息
半长轴: 6840.84km
偏心率: 0.0001067
轨道倾角: 53.157°
近地点辐角 99.472°
升交点赤经 143.521°
平近点角 260.641°
近地点: 461.973km
远地点: 463.433km
周期: 93.848分钟
每日圈数: 15.344004
详细信息
固有亮度:
5
最大亮度:
2.5
卫星平台:
Starlink V1.0
覆盖范围:
全球
运营商:
太空探索技术公司
运营商所在国:
美国
制造商(研发单位):
太空探索技术公司
制造商所在国:
美国
使用方式:
暂无
卫星简介
Starlink 计划是 SpaceX 推出的全球卫星互联网项目,通过发射低轨道卫星,为全球尤其是偏远地区提供高速、低延迟的互联网服务。自 2019 年起,Starlink 已部署数千颗卫星,旨在缩小全球数字鸿沟,推动互联网普及。该项目还为军事、航空等行业提供通信支持,带来广泛经济效益。
2D轨道图
3D轨道图
轨道高度分析图
轨道倾角分析图
轨道综合分析图
查看轨道综合分析图